Home > Weather > Bad Kissingen > Past weeks

Flag for Germany Past Weather in Bad Kissingen, Bavaria, Germany — Yesterday and Last 2 Weeks

Now
76 °F

Broken clouds.


Feels Like: 78 °F
Forecast: 57 / 74 °F
Wind: 8 mph from West

Location: Illesheim

Current Time: Jun 30, 2016 at 6:02:14 PM

Latest Report: Jun 30, 2016 at 4:58 PM


Visibility: N/A

Pressure: 29.97 "Hg

Humidity: 57%

Dew Point: 59 °F

Location of Bad KissingenLocation

Past Weather in Bad Kissingen — Graph

°F

Bad Kissingen Temperature Yesterday

Maximum temperature yesterday: 74 °F (at 2:58 PM)
Minimum temperature yesterday: 57 °F (at 11:58 PM)
Average temperature yesterday: 67 °F

High & Low Weather Summary for the Past Weeks

 TemperatureHumidityPressure
High90 °F (Jun 23, 4:58 PM)100% (Jun 19, 5:58 AM)30.27 "Hg (Jun 19, 5:58 AM)
Low46 °F (Jun 20, 5:58 AM)37% (Jun 23, 5:58 PM)29.60 "Hg (Jun 15, 5:58 PM)
Average64 °F77%30.03 "Hg
* Reported Jun 15 4:58 PM — Jun 30 4:58 PM, Bad Kissingen, Weather by CustomWeather, © 2016

Note: Actual official high and low records may vary slightly from our data, if they occured in-between our weather recording intervals... More about our weather records

Advertising

Bad Kissingen Weather History for the Previous 24 Hours

Scroll right to see more
 ConditionsComfort  
Time TempWeatherWind HumidityBarometerVisibility
4:58 PM
Thu, Jun 30
76 °FBroken clouds.8 mph57%29.97 "HgN/A
3:58 PM75 °FScattered clouds.13 mph55%29.98 "HgN/A
2:58 PM73 °FPartly sunny.14 mph62%29.98 "HgN/A
1:58 PM73 °FMild.10 mph62%29.99 "HgN/A
12:58 PM72 °FPartly sunny.7 mph65%30.01 "HgN/A
11:55 AM68 °FBroken clouds.7 mph73%30.02 "HgN/A
10:58 AM66 °FMostly cloudy.6 mph68%30.03 "HgN/A
9:58 AM66 °FMostly cloudy.5 mph68%30.01 "HgN/A
8:58 AM62 °FOvercast.5 mph89%29.98 "HgN/A
7:58 AM61 °FLight rain. Overcast.6 mph89%29.96 "HgN/A
7:02 AM57 °FLight rain. Fog.5 mph94%29.99 "Hg2 mi
5:58 AM55 °FMostly cloudy.2 mph95%29.96 "HgN/A
4:58 AM54 °FPassing clouds.2 mph95%29.94 "HgN/A
3:58 AM54 °FPassing clouds.No wind94%29.94 "HgN/A
2:58 AM54 °FClear.3 mph94%29.94 "HgN/A
1:58 AM55 °FPassing clouds.2 mph94%29.94 "HgN/A
12:58 AM56 °FClear.No wind92%29.95 "HgN/A
11:58 PM
Wed, Jun 29
57 °FClear.1 mph89%29.96 "HgN/A
10:55 PM59 °FClear.No wind88%29.95 "HgN/A
10:00 PM61 °FLight rain. Sunny.2 mph88%29.97 "Hg3 mi
8:58 PM68 °FSunny.6 mph64%29.93 "HgN/A
7:58 PM72 °FSunny.7 mph61%29.93 "HgN/A
6:58 PM72 °FPartly sunny.9 mph59%29.92 "HgN/A
Weather by CustomWeather, © 2016

See weather overviewHow to use our weather pages